| time (UTC) | temp F | wind direction | speed MPH | gust MPH | rain 1hr in | rain 24hr in | rain mn in | humidity % | barometer mb |
| 20260905215522 | 67 | 98 | 2.0 | 4.0 | 0.00 | 0.00 | 0.00 | 74 | 1011.3 |
| 20260905215042 | 67 | 106 | 1.0 | 3.0 | 0.00 | 0.00 | 0.00 | 76 | 1011.3 |
| 20260905214521 | 67 | 67 | 1.0 | 6.0 | 0.00 | 0.00 | 0.00 | 77 | 1011.3 |
| 20260905214021 | 67 | 44 | 0.0 | 3.0 | 0.00 | 0.00 | 0.00 | 78 | 1011.2 |
| 20260905213523 | 67 | 61 | 1.0 | 4.0 | 0.00 | 0.00 | 0.00 | 77 | 1011.2 |
| 20260905213023 | 67 | 86 | 2.0 | 8.0 | 0.00 | 0.00 | 0.00 | 77 | 1011.1 |
| 20260905212522 | 67 | 86 | 1.0 | 3.0 | 0.00 | 0.00 | 0.00 | 77 | 1011.0 |
| 20260905212022 | 67 | 77 | 2.0 | 7.0 | 0.00 | 0.00 | 0.00 | 78 | 1011.0 |
| 20260905211522 | 67 | 105 | 3.0 | 7.0 | 0.00 | 0.00 | 0.00 | 79 | 1011.0 |
| 20260905211022 | 67 | 100 | 3.0 | 7.0 | 0.00 | 0.00 | 0.00 | 79 | 1011.0 |
| 20260905210521 | 67 | 93 | 4.0 | 8.0 | 0.00 | 0.00 | 0.00 | 78 | 1011.0 |
| 20260905210021 | 68 | 99 | 5.0 | 11.0 | 0.00 | 0.00 | 0.00 | 76 | 1011.0 |
| 20260905205523 | 68 | 102 | 3.0 | 8.0 | 0.00 | 0.00 | 0.00 | 75 | 1010.8 |
| 20260905205023 | 68 | 92 | 4.0 | 9.0 | 0.00 | 0.00 | 0.00 | 75 | 1010.9 |
| 20260905204523 | 69 | 90 | 3.0 | 10.0 | 0.00 | 0.00 | 0.00 | 75 | 1010.9 |
| 20260905204027 | 69 | 81 | 2.0 | 7.0 | 0.00 | 0.00 | 0.00 | 77 | 1010.7 |
| 20260905203522 | 69 | 101 | 4.0 | 8.0 | 0.00 | 0.00 | 0.00 | 76 | 1010.7 |
| 20260905203022 | 69 | 117 | 4.0 | 10.0 | 0.00 | 0.00 | 0.00 | 75 | 1010.6 |
| 20260905202521 | 69 | 112 | 3.0 | 9.0 | 0.00 | 0.00 | 0.00 | 75 | 1010.7 |
| 20260905202041 | 70 | 126 | 5.0 | 9.0 | 0.00 | 0.00 | 0.00 | 74 | 1010.7 |
| 20260905201521 | 70 | 84 | 5.0 | 10.0 | 0.00 | 0.00 | 0.00 | 72 | 1010.5 |
| 20260905201021 | 70 | 73 | 2.0 | 8.0 | 0.00 | 0.00 | 0.00 | 72 | 1010.5 |
| 20260905200523 | 70 | 73 | 3.0 | 8.0 | 0.00 | 0.00 | 0.00 | 70 | 1010.3 |
| 20260905200022 | 71 | 79 | 2.0 | 10.0 | 0.00 | 0.00 | 0.00 | 69 | 1010.1 |
| 20260905195543 | 71 | 85 | 5.0 | 11.0 | 0.00 | 0.00 | 0.00 | 68 | 1010.2 |
| 20260905195042 | 71 | 73 | 3.0 | 11.0 | 0.00 | 0.00 | 0.00 | 68 | 1010.1 |
| 20260905194522 | 72 | 97 | 3.0 | 6.0 | 0.00 | 0.00 | 0.00 | 70 | 1010.0 |
| 20260905194021 | 71 | 109 | 3.0 | 9.0 | 0.00 | 0.00 | 0.00 | 69 | 1010.2 |
| 20260905193541 | 71 | 104 | 2.0 | 13.0 | 0.00 | 0.00 | 0.00 | 70 | 1010.2 |
| 20260905193021 | 72 | 71 | 4.0 | 13.0 | 0.00 | 0.00 | 0.00 | 69 | 1010.3 |
| 20260905192523 | 72 | 107 | 4.0 | 9.0 | 0.00 | 0.00 | 0.00 | 69 | 1010.3 |
| 20260905192023 | 72 | 106 | 5.0 | 9.0 | 0.00 | 0.00 | 0.00 | 70 | 1010.3 |
| 20260905191520 | 72 | 106 | 4.0 | 10.0 | 0.00 | 0.00 | 0.00 | 70 | 1010.3 |
| 20260905191043 | 72 | 116 | 5.0 | 10.0 | 0.00 | 0.00 | 0.00 | 70 | 1010.2 |
| 20260905190522 | 71 | 86 | 4.0 | 8.0 | 0.00 | 0.00 | 0.00 | 72 | 1010.2 |
| 20260905190022 | 71 | 118 | 4.0 | 9.0 | 0.00 | 0.00 | 0.00 | 72 | 1010.3 |
| 20260905185541 | 71 | 103 | 4.0 | 9.0 | 0.00 | 0.00 | 0.00 | 71 | 1010.4 |
| 20260905185021 | 71 | 81 | 4.0 | 9.0 | 0.00 | 0.00 | 0.00 | 71 | 1010.3 |
| 20260905184521 | 71 | 104 | 5.0 | 10.0 | 0.00 | 0.00 | 0.00 | 72 | 1010.4 |
| 20260905184022 | 71 | 107 | 4.0 | 8.0 | 0.00 | 0.00 | 0.00 | 72 | 1010.4 |
| 20260905183523 | 71 | 99 | 5.0 | 10.0 | 0.00 | 0.00 | 0.00 | 72 | 1010.4 |
| 20260905183022 | 71 | 115 | 5.0 | 9.0 | 0.00 | 0.00 | 0.00 | 75 | 1010.4 |
| 20260905182042 | 69 | 78 | 1.0 | 3.0 | 0.00 | 0.00 | 0.00 | 77 | 1010.5 |
| 20260905181522 | 69 | 81 | 2.0 | 6.0 | 0.00 | 0.00 | 0.00 | 76 | 1010.5 |
| 20260905181021 | 69 | 91 | 3.0 | 10.0 | 0.00 | 0.00 | 0.00 | 77 | 1010.5 |
| 20260905180606 | 69 | 86 | 3.0 | 7.0 | 0.00 | 0.00 | 0.00 | 77 | 1010.5 |
| 20260905180023 | 69 | 93 | 4.0 | 11.0 | 0.00 | 0.00 | 0.00 | 77 | 1010.5 |
| 20260905175523 | 69 | 89 | 5.0 | 14.0 | 0.00 | 0.00 | 0.00 | 76 | 1010.4 |
| 20260905175022 | 69 | 93 | 3.0 | 7.0 | 0.00 | 0.00 | 0.00 | 76 | 1010.3 |
| 20260905174522 | 69 | 103 | 2.0 | 15.0 | 0.00 | 0.00 | 0.00 | 75 | 1010.3 |
| 20260905174022 | 70 | 46 | 1.0 | 3.0 | 0.00 | 0.00 | 0.00 | 74 | 1010.1 |
| 20260905173522 | 70 | 56 | 2.0 | 10.0 | 0.00 | 0.00 | 0.00 | 73 | 1010.1 |
| 20260905173021 | 71 | 95 | 3.0 | 7.0 | 0.00 | 0.00 | 0.00 | 72 | 1010.0 |
| 20260905172521 | 71 | 62 | 1.0 | 3.0 | 0.00 | 0.00 | 0.00 | 72 | 1010.0 |
| 20260905172021 | 71 | 128 | 2.0 | 4.0 | 0.00 | 0.00 | 0.00 | 72 | 1009.9 |
| 20260905171521 | 71 | 108 | 1.0 | 4.0 | 0.00 | 0.00 | 0.00 | 73 | 1009.8 |
| 20260905171023 | 71 | 57 | 1.0 | 4.0 | 0.00 | 0.00 | 0.00 | 73 | 1009.8 |
| 20260905170522 | 71 | 8 | 1.0 | 4.0 | 0.00 | 0.00 | 0.00 | 73 | 1009.8 |
| 20260905170022 | 70 | 85 | 1.0 | 4.0 | 0.00 | 0.00 | 0.00 | 73 | 1009.9 |
| 20260905165522 | 70 | 323 | 1.0 | 2.0 | 0.00 | 0.00 | 0.00 | 73 | 1009.8 |
| 20260905165022 | 70 | 4 | 1.0 | 3.0 | 0.00 | 0.00 | 0.00 | 73 | 1009.9 |
| 20260905164522 | 70 | 88 | 2.0 | 4.0 | 0.00 | 0.00 | 0.00 | 74 | 1009.8 |
| 20260905164021 | 70 | 91 | 1.0 | 6.0 | 0.00 | 0.00 | 0.00 | 73 | 1009.8 |
| 20260905163521 | 70 | 317 | 1.0 | 3.0 | 0.00 | 0.00 | 0.00 | 72 | 1009.8 |
| 20260905163043 | 70 | 322 | 1.0 | 3.0 | 0.00 | 0.00 | 0.00 | 72 | 1009.8 |
| 20260905162523 | 69 | 305 | 0.0 | 2.0 | 0.00 | 0.00 | 0.00 | 72 | 1009.9 |
| 20260905162023 | 69 | 352 | 1.0 | 7.0 | 0.00 | 0.00 | 0.00 | 72 | 1009.9 |
| 20260905161602 | 69 | 86 | 2.0 | 7.0 | 0.00 | 0.00 | 0.00 | 73 | 1009.8 |
| 20260905161022 | 69 | 355 | 1.0 | 2.0 | 0.00 | 0.00 | 0.00 | 72 | 1010.0 |
| 20260905160522 | 70 | 22 | 1.0 | 2.0 | 0.00 | 0.00 | 0.00 | 73 | 1010.0 |
| 20260905160021 | 70 | 66 | 1.0 | 6.0 | 0.00 | 0.00 | 0.00 | 72 | 1009.8 |
| 20260905155541 | 70 | 78 | 2.0 | 8.0 | 0.00 | 0.00 | 0.00 | 73 | 1009.8 |
| 20260905155021 | 69 | 29 | 1.0 | 3.0 | 0.00 | 0.00 | 0.00 | 75 | 1009.9 |
| 20260905154522 | 69 | 35 | 0.0 | 4.0 | 0.00 | 0.00 | 0.00 | 75 | 1009.9 |
| 20260905154022 | 69 | 355 | 1.0 | 7.0 | 0.00 | 0.00 | 0.00 | 75 | 1010.0 |
| 20260905153527 | 69 | 75 | 1.0 | 4.0 | 0.00 | 0.00 | 0.00 | 76 | 1010.0 |
| 20260905153022 | 69 | 127 | 1.0 | 4.0 | 0.00 | 0.00 | 0.00 | 77 | 1010.0 |
| 20260905152543 | 69 | 69 | 1.0 | 4.0 | 0.00 | 0.00 | 0.00 | 79 | 1009.9 |
| 20260905152102 | 69 | 51 | 1.0 | 4.0 | 0.00 | 0.00 | 0.00 | 78 | 1009.9 |
| 20260905151521 | 69 | 347 | 1.0 | 6.0 | 0.00 | 0.00 | 0.00 | 77 | 1009.8 |
| 20260905151041 | 69 | 23 | 1.0 | 6.0 | 0.00 | 0.00 | 0.00 | 77 | 1009.8 |
| 20260905150521 | 69 | 338 | 0.0 | 2.0 | 0.00 | 0.00 | 0.00 | 77 | 1009.7 |
| 20260905150043 | 69 | 333 | 1.0 | 2.0 | 0.00 | 0.00 | 0.00 | 78 | 1009.8 |
| 20260905145542 | 69 | 345 | 0.0 | 3.0 | 0.00 | 0.00 | 0.00 | 77 | 1009.8 |
| 20260905144522 | 69 | 29 | 1.0 | 3.0 | 0.00 | 0.00 | 0.00 | 77 | 1009.8 |
| 20260905144022 | 69 | 321 | 1.0 | 2.0 | 0.00 | 0.00 | 0.00 | 77 | 1009.8 |
| 20260905143522 | 69 | 330 | 1.0 | 3.0 | 0.00 | 0.00 | 0.00 | 76 | 1009.8 |
| 20260905143122 | 69 | 347 | 1.0 | 2.0 | 0.00 | 0.00 | 0.00 | 76 | 1009.7 |
| 20260905142522 | 69 | 343 | 1.0 | 2.0 | 0.00 | 0.00 | 0.00 | 78 | 1009.8 |
| 20260905142021 | 69 | 16 | 0.0 | 2.0 | 0.00 | 0.00 | 0.00 | 79 | 1009.7 |
| 20260905141521 | 68 | 43 | 0.0 | 2.0 | 0.00 | 0.00 | 0.00 | 79 | 1009.8 |
| 20260905141021 | 68 | 347 | 0.0 | 2.0 | 0.00 | 0.00 | 0.00 | 80 | 1009.9 |
| 20260905140523 | 68 | 341 | 0.0 | 2.0 | 0.00 | 0.00 | 0.00 | 80 | 1009.9 |
| 20260905140022 | 68 | 344 | 0.0 | 1.0 | 0.00 | 0.00 | 0.00 | 80 | 1009.9 |
| 20260905135522 | 68 | 344 | 0.0 | 2.0 | 0.00 | 0.00 | 0.00 | 80 | 1009.9 |
| 20260905135102 | 68 | 53 | 1.0 | 2.0 | 0.00 | 0.00 | 0.00 | 79 | 1009.9 |
| 20260905133021 | 68 | 71 | 1.0 | 3.0 | 0.00 | 0.00 | 0.00 | 80 | 1009.6 |
| 20260905132521 | 68 | 331 | 1.0 | 2.0 | 0.00 | 0.00 | 0.00 | 80 | 1009.6 |
| 20260905132021 | 68 | 342 | 0.0 | 2.0 | 0.00 | 0.00 | 0.00 | 81 | 1009.5 |
| 20260905131520 | 68 | 342 | 1.0 | 2.0 | 0.00 | 0.00 | 0.00 | 80 | 1009.5 |
| 20260905131022 | 68 | 330 | 1.0 | 2.0 | 0.00 | 0.00 | 0.00 | 79 | 1009.5 |
| 20260905130522 | 68 | 63 | 1.0 | 2.0 | 0.00 | 0.00 | 0.00 | 80 | 1009.4 |
| 20260905130022 | 69 | 13 | 1.0 | 2.0 | 0.00 | 0.00 | 0.00 | 79 | 1009.4 |
| 20260905125521 | 69 | 31 | 1.0 | 7.0 | 0.00 | 0.00 | 0.00 | 79 | 1009.5 |
| 20260905125021 | 68 | 65 | 1.0 | 4.0 | 0.00 | 0.00 | 0.00 | 80 | 1009.4 |
| 20260905124521 | 67 | 351 | 0.0 | 2.0 | 0.00 | 0.00 | 0.00 | 80 | 1009.3 |
| 20260905124021 | 67 | 333 | 1.0 | 2.0 | 0.00 | 0.00 | 0.00 | 82 | 1009.4 |
| 20260905123521 | 67 | 332 | 0.0 | 2.0 | 0.00 | 0.00 | 0.00 | 81 | 1009.2 |
| 20260905123043 | 67 | 6 | 1.0 | 3.0 | 0.00 | 0.00 | 0.00 | 81 | 1009.1 |
| 20260905122542 | 67 | 350 | 0.0 | 1.0 | 0.00 | 0.00 | 0.00 | 83 | 1009.2 |
| 20260905122022 | 66 | 347 | 1.0 | 2.0 | 0.00 | 0.00 | 0.00 | 83 | 1009.1 |
| 20260905121522 | 66 | 346 | 0.0 | 2.0 | 0.00 | 0.00 | 0.00 | 84 | 1009.0 |
| 20260905121022 | 66 | 327 | 0.0 | 2.0 | 0.00 | 0.00 | 0.00 | 85 | 1009.0 |
| 20260905120521 | 65 | 346 | 0.0 | 1.0 | 0.00 | 0.00 | 0.00 | 86 | 1008.9 |
| 20260905120041 | 65 | 0.0 | 0.0 | 0.00 | 0.00 | 0.00 | 87 | 1009.0 | |
| 20260905115521 | 64 | 344 | 0.0 | 2.0 | 0.00 | 0.00 | 0.00 | 88 | 1009.0 |
| 20260905115024 | 64 | 0.0 | 0.0 | 0.00 | 0.00 | 0.00 | 88 | 1008.8 | |
| 20260905114522 | 64 | 61 | 0.0 | 2.0 | 0.00 | 0.00 | 0.00 | 88 | 1008.8 |
| 20260905114022 | 63 | 93 | 0.0 | 1.0 | 0.00 | 0.00 | 0.00 | 88 | 1008.9 |
| 20260905113522 | 63 | 0.0 | 1.0 | 0.00 | 0.00 | 0.00 | 89 | 1008.8 | |
| 20260905113021 | 63 | 0.0 | 0.0 | 0.00 | 0.00 | 0.00 | 89 | 1008.8 | |
| 20260905112521 | 63 | 0.0 | 0.0 | 0.00 | 0.00 | 0.00 | 90 | 1008.7 | |
| 20260905112041 | 62 | 0.0 | 0.0 | 0.00 | 0.00 | 0.00 | 91 | 1008.7 | |
| 20260905111523 | 62 | 0.0 | 0.0 | 0.00 | 0.00 | 0.00 | 92 | 1008.6 | |
| 20260905111021 | 61 | 0.0 | 0.0 | 0.00 | 0.00 | 0.00 | 93 | 1008.6 | |
| 20260905110522 | 61 | 0.0 | 0.0 | 0.00 | 0.00 | 0.00 | 94 | 1008.5 | |
| 20260905110022 | 60 | 0.0 | 0.0 | 0.00 | 0.00 | 0.00 | 96 | 1008.5 | |
| 20260905105527 | 60 | 0.0 | 0.0 | 0.00 | 0.00 | 0.00 | 96 | 1008.4 | |
| 20260905105022 | 60 | 0.0 | 0.0 | 0.00 | 0.00 | 0.00 | 96 | 1008.4 | |
| 20260905104521 | 60 | 0.0 | 0.0 | 0.00 | 0.00 | 0.00 | 97 | 1008.4 | |
| 20260905104021 | 60 | 0.0 | 0.0 | 0.00 | 0.00 | 0.00 | 97 | 1008.5 | |
| 20260905103521 | 59 | 0.0 | 0.0 | 0.00 | 0.00 | 0.00 | 97 | 1008.4 | |
| 20260905103021 | 59 | 0.0 | 0.0 | 0.00 | 0.00 | 0.00 | 97 | 1008.4 | |
| 20260905102523 | 59 | 0.0 | 0.0 | 0.00 | 0.00 | 0.00 | 97 | 1008.4 | |
| 20260905102023 | 59 | 0.0 | 0.0 | 0.00 | 0.00 | 0.00 | 97 | 1008.4 | |
| 20260905101522 | 59 | 0.0 | 0.0 | 0.00 | 0.00 | 0.00 | 97 | 1008.4 | |
| 20260905101022 | 59 | 0.0 | 0.0 | 0.00 | 0.00 | 0.00 | 97 | 1008.5 | |
| 20260905100522 | 59 | 0.0 | 0.0 | 0.00 | 0.00 | 0.00 | 97 | 1008.3 | |
| 20260905100022 | 59 | 0.0 | 0.0 | 0.00 | 0.00 | 0.00 | 97 | 1008.4 | |
| 20260905095521 | 59 | 0.0 | 0.0 | 0.00 | 0.00 | 0.00 | 97 | 1008.3 | |
| 20260905095041 | 58 | 0.0 | 0.0 | 0.00 | 0.00 | 0.00 | 97 | 1008.4 | |
| 20260905094523 | 59 | 0.0 | 0.0 | 0.00 | 0.00 | 0.00 | 97 | 1008.2 | |
| 20260905094022 | 59 | 0.0 | 0.0 | 0.00 | 0.00 | 0.00 | 97 | 1008.2 | |
| 20260905093522 | 59 | 0.0 | 0.0 | 0.00 | 0.00 | 0.00 | 97 | 1008.2 | |
| 20260905093022 | 59 | 0.0 | 0.0 | 0.00 | 0.00 | 0.00 | 96 | 1008.2 | |
| 20260905092522 | 59 | 0.0 | 0.0 | 0.00 | 0.00 | 0.00 | 96 | 1008.3 | |
| 20260905092021 | 59 | 0.0 | 0.0 | 0.00 | 0.00 | 0.00 | 96 | 1008.2 | |
| 20260905091521 | 59 | 0.0 | 0.0 | 0.00 | 0.00 | 0.00 | 96 | 1008.1 | |
| 20260905091041 | 59 | 0.0 | 0.0 | 0.00 | 0.00 | 0.00 | 96 | 1008.1 | |
| 20260905090523 | 59 | 0.0 | 0.0 | 0.00 | 0.00 | 0.00 | 96 | 1008.1 | |
| 20260905090023 | 59 | 0.0 | 0.0 | 0.00 | 0.00 | 0.00 | 96 | 1008.1 | |
| 20260905085522 | 59 | 0.0 | 0.0 | 0.00 | 0.00 | 0.00 | 96 | 1008.1 | |
| 20260905085022 | 59 | 0.0 | 0.0 | 0.00 | 0.00 | 0.00 | 95 | 1008.1 | |
| 20260905084522 | 59 | 0.0 | 0.0 | 0.00 | 0.00 | 0.00 | 95 | 1008.0 | |
| 20260905084022 | 59 | 0.0 | 0.0 | 0.00 | 0.00 | 0.00 | 95 | 1008.0 | |
| 20260905083521 | 59 | 0.0 | 0.0 | 0.00 | 0.00 | 0.00 | 95 | 1008.1 | |
| 20260905083021 | 60 | 0.0 | 0.0 | 0.00 | 0.00 | 0.00 | 95 | 1008.0 | |
| 20260905082541 | 60 | 0.0 | 0.0 | 0.00 | 0.00 | 0.00 | 94 | 1008.0 | |
| 20260905082023 | 60 | 0.0 | 0.0 | 0.00 | 0.00 | 0.00 | 94 | 1008.0 | |
| 20260905081521 | 60 | 0.0 | 0.0 | 0.00 | 0.00 | 0.00 | 94 | 1008.0 | |
| 20260905081022 | 60 | 0.0 | 0.0 | 0.00 | 0.00 | 0.00 | 94 | 1008.0 | |
| 20260905080522 | 60 | 93 | 0.0 | 1.0 | 0.00 | 0.00 | 0.00 | 94 | 1008.1 |
| 20260905080022 | 60 | 93 | 0.0 | 1.0 | 0.00 | 0.00 | 0.00 | 94 | 1008.0 |
| 20260905075522 | 60 | 93 | 0.0 | 1.0 | 0.00 | 0.00 | 0.00 | 94 | 1008.1 |
| 20260905075021 | 60 | 0.0 | 0.0 | 0.00 | 0.00 | 0.00 | 93 | 1008.1 | |
| 20260905074521 | 60 | 0.0 | 0.0 | 0.00 | 0.00 | 0.00 | 93 | 1008.1 | |
| 20260905074023 | 60 | 0.0 | 0.0 | 0.00 | 0.00 | 0.00 | 93 | 1008.1 | |
| 20260905073523 | 60 | 0.0 | 0.0 | 0.00 | 0.00 | 0.00 | 93 | 1008.0 | |
| 20260905073022 | 60 | 0.0 | 0.0 | 0.00 | 0.00 | 0.00 | 93 | 1008.1 | |
| 20260905072522 | 61 | 0.0 | 0.0 | 0.00 | 0.00 | 0.00 | 93 | 1008.2 | |
| 20260905072022 | 61 | 0.0 | 0.0 | 0.00 | 0.00 | 0.00 | 92 | 1008.2 | |
| 20260905071522 | 61 | 0.0 | 0.0 | 0.00 | 0.00 | 0.00 | 92 | 1008.2 | |
| 20260905071021 | 61 | 0.0 | 0.0 | 0.00 | 0.00 | 0.00 | 92 | 1008.2 | |
| 20260905070521 | 61 | 0.0 | 0.0 | 0.00 | 0.00 | 0.00 | 91 | 1008.2 | |
| 20260905070021 | 61 | 93 | 0.0 | 1.0 | 0.00 | 0.00 | 0.00 | 91 | 1008.3 |
| 20260905065521 | 62 | 0.0 | 0.0 | 0.00 | 0.00 | 0.00 | 90 | 1008.3 | |
| 20260905065021 | 62 | 0.0 | 0.0 | 0.00 | 0.00 | 0.00 | 89 | 1008.2 | |
| 20260905064523 | 62 | 0.0 | 1.0 | 0.00 | 0.00 | 0.00 | 88 | 1008.4 | |
| 20260905064022 | 63 | 93 | 0.0 | 1.0 | 0.00 | 0.00 | 0.00 | 88 | 1008.4 |
| 20260905063522 | 63 | 92 | 0.0 | 1.0 | 0.00 | 0.00 | 0.00 | 88 | 1008.4 |
| 20260905063022 | 63 | 93 | 0.0 | 1.0 | 0.00 | 0.00 | 0.00 | 88 | 1008.6 |
| 20260905062522 | 62 | 93 | 0.0 | 1.0 | 0.00 | 0.00 | 0.00 | 88 | 1008.5 |
| 20260905062022 | 62 | 95 | 0.0 | 1.0 | 0.00 | 0.00 | 0.00 | 89 | 1008.6 |
| 20260905061521 | 62 | 94 | 0.0 | 1.0 | 0.00 | 0.00 | 0.00 | 89 | 1008.7 |
| 20260905061041 | 62 | 90 | 0.0 | 2.0 | 0.00 | 0.00 | 0.00 | 89 | 1008.7 |
| 20260905060521 | 62 | 41 | 0.0 | 1.0 | 0.00 | 0.00 | 0.00 | 89 | 1008.7 |
| 20260905060101 | 62 | 18 | 0.0 | 1.0 | 0.00 | 0.00 | 0.00 | 89 | 1008.7 |
| 20260905055523 | 63 | 0.0 | 1.0 | 0.00 | 0.00 | 0.00 | 89 | 1008.7 | |
| 20260905055022 | 63 | 18 | 0.0 | 1.0 | 0.00 | 0.00 | 0.00 | 89 | 1008.7 |
| 20260905054522 | 62 | 17 | 0.0 | 2.0 | 0.00 | 0.00 | 0.00 | 89 | 1008.7 |
| 20260905054123 | 62 | 0.0 | 0.0 | 0.00 | 0.00 | 0.00 | 89 | 1008.7 | |
| 20260905053542 | 62 | 0.0 | 0.0 | 0.00 | 0.00 | 0.00 | 89 | 1008.6 | |
| 20260905053042 | 62 | 0.0 | 0.0 | 0.00 | 0.00 | 0.00 | 89 | 1008.7 | |
| 20260905052521 | 62 | 0.0 | 0.0 | 0.00 | 0.00 | 0.00 | 90 | 1008.6 | |
| 20260905052041 | 63 | 0.0 | 0.0 | 0.00 | 0.00 | 0.00 | 89 | 1008.6 | |
| 20260905051523 | 63 | 0.0 | 0.0 | 0.00 | 0.00 | 0.00 | 90 | 1008.7 | |
| 20260905051022 | 63 | 0.0 | 0.0 | 0.00 | 0.00 | 0.00 | 90 | 1008.7 | |
| 20260905050522 | 62 | 0.0 | 0.0 | 0.00 | 0.00 | 0.00 | 90 | 1008.7 | |
| 20260905050022 | 62 | 0.0 | 0.0 | 0.00 | 0.00 | 0.00 | 90 | 1008.6 | |
| 20260905045522 | 62 | 0.0 | 0.0 | 0.00 | 0.00 | 0.00 | 91 | 1008.6 | |
| 20260905045022 | 62 | 0.0 | 0.0 | 0.00 | 0.00 | 0.00 | 91 | 1008.6 | |
| 20260905044521 | 63 | 0.0 | 0.0 | 0.00 | 0.00 | 0.00 | 91 | 1008.6 | |
| 20260905044021 | 63 | 0.0 | 0.0 | 0.00 | 0.00 | 0.00 | 91 | 1008.5 | |
| 20260905043521 | 63 | 0.0 | 0.0 | 0.00 | 0.00 | 0.00 | 91 | 1008.5 | |
| 20260905043042 | 63 | 0.0 | 0.0 | 0.00 | 0.00 | 0.00 | 91 | 1008.5 | |
| 20260905042542 | 63 | 0.0 | 0.0 | 0.00 | 0.00 | 0.00 | 91 | 1008.7 | |
| 20260905042022 | 63 | 0.0 | 0.0 | 0.00 | 0.00 | 0.00 | 90 | 1008.8 | |
| 20260905041522 | 63 | 0.0 | 0.0 | 0.00 | 0.00 | 0.00 | 90 | 1008.8 | |
| 20260905041102 | 63 | 0.0 | 0.0 | 0.00 | 0.00 | 0.00 | 90 | 1008.9 | |
| 20260905040542 | 63 | 0.0 | 0.0 | 0.00 | 0.00 | 0.00 | 90 | 1008.8 | |
| 20260905040021 | 63 | 0.0 | 0.0 | 0.00 | 0.00 | 0.00 | 89 | 1008.7 | |
| 20260905035521 | 63 | 0.0 | 0.0 | 0.00 | 0.00 | 0.00 | 89 | 1008.7 | |
| 20260905035042 | 63 | 0.0 | 0.0 | 0.00 | 0.00 | 0.00 | 89 | 1008.7 | |
| 20260905034525 | 64 | 0.0 | 0.0 | 0.00 | 0.00 | 0.00 | 88 | 1008.6 | |
| 20260905034022 | 64 | 0.0 | 0.0 | 0.00 | 0.00 | 0.00 | 88 | 1008.7 | |
| 20260905033522 | 64 | 0.0 | 0.0 | 0.00 | 0.00 | 0.00 | 87 | 1008.7 | |
| 20260905033022 | 64 | 0.0 | 0.0 | 0.00 | 0.00 | 0.00 | 87 | 1008.8 | |
| 20260905032521 | 64 | 0.0 | 0.0 | 0.00 | 0.00 | 0.00 | 87 | 1008.8 | |
| 20260905032021 | 64 | 0.0 | 0.0 | 0.00 | 0.00 | 0.00 | 87 | 1008.8 | |
| 20260905031521 | 64 | 0.0 | 0.0 | 0.00 | 0.00 | 0.00 | 87 | 1008.8 | |
| 20260905031021 | 64 | 0.0 | 0.0 | 0.00 | 0.00 | 0.00 | 87 | 1008.8 | |
| 20260905030520 | 64 | 0.0 | 1.0 | 0.00 | 0.00 | 0.00 | 87 | 1008.8 | |
| 20260905030022 | 64 | 272 | 0.0 | 1.0 | 0.00 | 0.00 | 0.00 | 86 | 1008.8 |
| 20260905025522 | 65 | 0.0 | 0.0 | 0.00 | 0.00 | 0.00 | 87 | 1008.8 | |
| 20260905025022 | 65 | 0.0 | 0.0 | 0.00 | 0.00 | 0.00 | 87 | 1008.8 | |
| 20260905024542 | 65 | 0.0 | 0.0 | 0.00 | 0.00 | 0.00 | 86 | 1008.8 | |
| 20260905024021 | 65 | 0.0 | 0.0 | 0.00 | 0.00 | 0.00 | 85 | 1008.9 | |
| 20260905023521 | 65 | 0.0 | 0.0 | 0.00 | 0.00 | 0.00 | 85 | 1008.8 | |
| 20260905023021 | 65 | 0.0 | 0.0 | 0.00 | 0.00 | 0.00 | 85 | 1008.9 | |
| 20260905022521 | 65 | 0.0 | 0.0 | 0.00 | 0.00 | 0.00 | 85 | 1009.0 | |
| 20260905022021 | 65 | 272 | 0.0 | 1.0 | 0.00 | 0.00 | 0.00 | 85 | 1009.0 |
| 20260905021522 | 65 | 0.0 | 0.0 | 0.00 | 0.00 | 0.00 | 85 | 1009.0 | |
| 20260905021022 | 66 | 0.0 | 0.0 | 0.00 | 0.00 | 0.00 | 84 | 1009.0 | |
| 20260905020522 | 66 | 0.0 | 0.0 | 0.00 | 0.00 | 0.00 | 83 | 1009.1 | |
| 20260905020022 | 66 | 0.0 | 0.0 | 0.00 | 0.00 | 0.00 | 84 | 1009.1 | |
| 20260905015521 | 66 | 0.0 | 0.0 | 0.00 | 0.00 | 0.00 | 84 | 1009.0 | |
| 20260905015021 | 66 | 0.0 | 0.0 | 0.00 | 0.00 | 0.00 | 83 | 1009.1 | |
| 20260905014521 | 66 | 0.0 | 0.0 | 0.00 | 0.00 | 0.00 | 85 | 1009.2 | |
| 20260905014021 | 66 | 0.0 | 0.0 | 0.00 | 0.00 | 0.00 | 85 | 1009.2 | |
| 20260905013521 | 66 | 0.0 | 0.0 | 0.00 | 0.00 | 0.00 | 83 | 1009.1 | |
| 20260905013042 | 66 | 0.0 | 0.0 | 0.00 | 0.00 | 0.00 | 83 | 1009.1 | |
| 20260905012542 | 66 | 0.0 | 0.0 | 0.00 | 0.00 | 0.00 | 82 | 1009.1 | |
| 20260905012022 | 66 | 0.0 | 0.0 | 0.00 | 0.00 | 0.00 | 82 | 1009.2 | |
| 20260905011542 | 67 | 0.0 | 0.0 | 0.00 | 0.00 | 0.00 | 83 | 1009.1 | |
| 20260905011022 | 67 | 0.0 | 0.0 | 0.00 | 0.00 | 0.00 | 82 | 1009.2 | |
| 20260905010521 | 67 | 0.0 | 0.0 | 0.00 | 0.00 | 0.00 | 82 | 1009.3 | |
| 20260905010041 | 67 | 0.0 | 0.0 | 0.00 | 0.00 | 0.00 | 81 | 1009.1 | |
| 20260905005520 | 67 | 0.0 | 0.0 | 0.00 | 0.00 | 0.00 | 80 | 1009.1 | |
| 20260905005020 | 68 | 0.0 | 0.0 | 0.00 | 0.00 | 0.00 | 81 | 1009.1 | |
| 20260905004522 | 68 | 0.0 | 0.0 | 0.00 | 0.00 | 0.00 | 81 | 1009.2 | |
| 20260905004022 | 68 | 0.0 | 0.0 | 0.00 | 0.00 | 0.00 | 79 | 1009.1 | |
| 20260905003522 | 68 | 0.0 | 0.0 | 0.00 | 0.00 | 0.00 | 78 | 1009.0 | |
| 20260905003022 | 68 | 0.0 | 0.0 | 0.00 | 0.00 | 0.00 | 79 | 1009.0 | |
| 20260905002521 | 69 | 0.0 | 0.0 | 0.00 | 0.00 | 0.00 | 79 | 1009.0 | |
| 20260905002021 | 69 | 0.0 | 0.0 | 0.00 | 0.00 | 0.00 | 77 | 1009.0 | |
| 20260905001521 | 69 | 0.0 | 0.0 | 0.00 | 0.00 | 0.00 | 77 | 1008.9 | |
| 20260905001021 | 69 | 0.0 | 0.0 | 0.00 | 0.00 | 0.00 | 76 | 1008.9 | |
| 20260905000520 | 70 | 0.0 | 0.0 | 0.00 | 0.00 | 0.00 | 76 | 1008.7 | |
| 20260905000022 | 70 | 0.0 | 0.0 | 0.00 | 0.00 | 0.00 | 74 | 1008.8 | |
| 20260904235522 | 70 | 0.0 | 0.0 | 0.00 | 0.00 | 0.00 | 74 | 1008.8 | |
| 20260904235022 | 70 | 0.0 | 1.0 | 0.00 | 0.00 | 0.00 | 74 | 1008.6 | |
| 20260904234607 | 71 | 0.0 | 1.0 | 0.00 | 0.00 | 0.00 | 74 | 1008.6 | |
| 20260904234021 | 71 | 0.0 | 0.0 | 0.00 | 0.00 | 0.00 | 76 | 1008.5 | |
| 20260904233521 | 71 | 0.0 | 0.0 | 0.00 | 0.00 | 0.00 | 74 | 1008.4 | |
| 20260904233021 | 72 | 0.0 | 0.0 | 0.00 | 0.00 | 0.00 | 73 | 1008.4 | |
| 20260904232520 | 72 | 0.0 | 0.0 | 0.00 | 0.00 | 0.00 | 74 | 1008.2 | |
| 20260904232020 | 72 | 0.0 | 0.0 | 0.00 | 0.00 | 0.00 | 74 | 1008.2 | |
| 20260904231522 | 73 | 0.0 | 0.0 | 0.00 | 0.00 | 0.00 | 69 | 1008.2 | |
| 20260904231022 | 73 | 0.0 | 0.0 | 0.00 | 0.00 | 0.00 | 68 | 1008.2 | |
| 20260904230542 | 73 | 0.0 | 0.0 | 0.00 | 0.00 | 0.00 | 68 | 1008.2 | |
| 20260904230022 | 74 | 0.0 | 0.0 | 0.00 | 0.00 | 0.00 | 68 | 1008.2 | |
| 20260904225521 | 74 | 0.0 | 0.0 | 0.00 | 0.00 | 0.00 | 67 | 1008.1 | |
| 20260904225021 | 74 | 0.0 | 0.0 | 0.00 | 0.00 | 0.00 | 68 | 1008.2 | |
| 20260904224523 | 75 | 0.0 | 0.0 | 0.00 | 0.00 | 0.00 | 66 | 1008.2 | |
| 20260904224022 | 75 | 0.0 | 0.0 | 0.00 | 0.00 | 0.00 | 64 | 1008.2 | |
| 20260904223522 | 76 | 0.0 | 0.0 | 0.00 | 0.00 | 0.00 | 62 | 1008.1 | |
| 20260904223022 | 77 | 0.0 | 2.0 | 0.00 | 0.00 | 0.00 | 61 | 1008.1 | |
| 20260904222522 | 77 | 319 | 0.0 | 2.0 | 0.00 | 0.00 | 0.00 | 59 | 1008.1 |
| 20260904222022 | 78 | 339 | 0.0 | 2.0 | 0.00 | 0.00 | 0.00 | 58 | 1008.1 |
| 20260904221541 | 78 | 339 | 1.0 | 2.0 | 0.00 | 0.00 | 0.00 | 58 | 1007.9 |
| 20260904221021 | 77 | 339 | 1.0 | 2.0 | 0.00 | 0.00 | 0.00 | 58 | 1007.9 |
| 20260904220521 | 78 | 339 | 1.0 | 2.0 | 0.00 | 0.00 | 0.00 | 59 | 1008.0 |
| 20260904220021 | 79 | 23 | 0.0 | 2.0 | 0.00 | 0.00 | 0.00 | 55 | 1008.0 |